#timestamp,LO_Frequency,Hit 
1497754815.2,286047004.1,N
1497754835.1,286047005.5,N
1497754836.0,286047005.5,N
1497754855.8,286047005.5,N
1497754875.6,286047005.3,N
1497754895.5,286047004.8,N
1497754915.3,286047004.9,N
1497754935.2,286047005.5,N
1497754955.9,286047004.1,N
1497754975.7,286047002.9,N
1497754995.6,286047003.6,N
1497755015.4,286047004.3,N
1497755035.2,286047004.2,N
1497755055.1,286047006.0,N
1497755056.0,286047006.0,N
1497755075.8,286047005.8,N
1497755095.7,286047004.6,N
1497755115.5,286047005.4,N
1497755135.3,286047004.9,N
1497755155.2,286047004.6,N
1497755175.9,286047007.4,N
1497755195.7,286047005.0,N
1497755215.6,286047005.5,N
1497755235.4,286047006.0,N
1497755255.3,286047005.1,N
1497755275.1,286047005.2,N
1497755276.0,286047005.2,N
1497755295.8,286047005.2,N
1497755315.7,286047003.6,N
1497755335.5,286047005.3,N
1497755355.3,286047007.5,N
1497755375.2,286047005.2,N
1497755395.0,286047003.3,N
1497755395.9,286047003.3,N
1497755415.8,286047002.9,N
1497755435.6,286047003.3,N
1497755455.4,286047003.0,N
1497755475.3,286047005.2,N
1497755495.1,286047004.8,N
1497755515.8,286047005.2,N
1497755535.7,286047004.9,N
1497755555.5,286047004.7,N
1497755575.4,286047007.3,N
1497755595.2,286047006.3,N
1497755615.0,286047006.8,N
1497755615.9,286047006.8,N
1497755635.8,286047007.1,N
1497755655.6,286047006.3,N
1497755675.4,286047008.4,N
1497755695.3,286047006.9,N
1497755715.1,286047009.0,N
1497755735.8,286047006.1,N
1497755755.7,286047006.7,N
1497755775.5,286047006.6,N
1497755795.4,286047004.5,N
1497755815.2,286047004.7,N
1497755835.0,286047006.3,N
1497755835.9,286047006.3,N
1497755855.8,286047006.9,N
1497755875.6,286047005.2,N
1497755895.4,286047011.9,N
1497755915.3,286047005.1,N
1497755935.1,286047005.1,N
1497755955.9,286047004.6,N
1497755975.7,286047004.8,N
1497755995.5,286047005.1,N
1497756015.4,286047005.0,N
1497756035.2,286047004.8,N
1497756055.0,286047004.9,N
1497756055.9,286047004.9,N
1497756075.8,286047004.5,N
1497756095.6,286047005.0,N
1497756115.5,286047005.0,N
1497756135.3,286047007.6,N
1497756155.1,286047006.2,N
1497756175.9,286047006.4,N
1497756195.7,286047006.1,N
1497756215.5,286047006.9,N
1497756235.4,286047006.3,N
1497756255.2,286047006.3,N
1497756275.1,286047006.6,N
1497756276.0,286047006.6,N
1497756295.8,286047006.5,N
1497756315.6,286047006.1,N
1497756335.5,286047006.5,N
1497756355.3,286047006.3,N
1497756375.1,286047007.8,N
1497756395.9,286047008.6,N
1497756415.7,286047006.5,N
1497756435.6,286047009.0,N
1497756455.4,286047006.5,N
1497756475.2,286047006.8,N
1497756495.1,286047006.8,N
1497756496.0,286047006.8,N
1497756515.8,286047006.4,N
1497756535.6,286047006.4,N
1497756555.5,286047006.3,N
1497756575.3,286047005.2,N
1497756595.2,286047006.3,N
1497756615.9,286047005.4,N
1497756635.7,286047006.3,N
1497756655.6,286047004.7,N
1497756675.4,286047004.6,N
1497756695.3,286047005.4,N
1497756715.1,286047004.6,N
1497756716.0,286047004.6,N
1497756735.8,286047005.5,N
1497756755.7,286047005.1,N
1497756775.5,286047005.2,N
1497756795.3,286047005.3,N
1497756815.2,286047003.5,N
1497756835.0,286047004.6,N
1497756835.9,286047004.6,N
1497756855.8,286047005.2,N
1497756875.6,286047006.0,N
1497756895.4,286047005.5,N
1497756915.3,286047007.4,N
1497756935.1,286047004.7,N
1497756955.8,286047006.0,N
1497756975.7,286047004.1,N
1497756995.5,286047004.7,N
1497757015.4,286047006.7,N
1497757035.2,286047006.7,N
1497757055.0,286047004.5,N
1497757055.9,286047004.5,N
1497757075.8,286047005.2,N
1497757095.6,286047007.1,N
1497757115.5,286047006.4,N
1497757135.3,286047006.1,N
1497757155.1,286047007.3,N
1497757175.9,286047006.2,N
1497757195.7,286047007.2,N
1497757215.5,286047006.6,N
1497757235.4,286047004.5,N
1497757255.2,286047004.7,N
1497757275.0,286047007.0,N
1497757276.0,286047007.0,N
1497757295.8,286047006.9,N
1497757315.6,286047007.0,N
1497757335.5,286047006.8,N
1497757355.3,286047007.0,N
1497757375.1,286047008.0,N
1497757395.9,286047008.8,Y
1497757415.7,286047003.7,N
1497757435.6,286047003.7,N
1497757455.4,286047003.9,N
1497757475.2,286047001.9,N
1497757495.1,286047011.9,Y
1497757496.0,286047002.8,N
1497757515.8,286046999.1,N
1497757535.6,286047000.9,N
1497757555.5,286046998.1,N
1497757575.3,286046999.0,N
1497757595.2,286047000.4,N
1497757615.9,286046999.8,N
1497757635.7,286047000.6,N
1497757655.6,286047000.1,N
1497757675.4,286047002.2,N
1497757695.2,286047000.6,N
1497757715.1,286047000.8,N
1497757716.0,286047000.8,N
1497757735.8,286046998.7,N
1497757755.7,286046998.4,N
1497757775.5,286046999.2,N
1497757795.3,286047001.1,N
1497757815.2,286046998.6,N
1497757835.0,286046998.4,N
1497757835.9,286046998.4,N
1497757855.8,286046998.3,N
1497757875.6,286046998.2,N
1497757895.4,286046998.9,N
1497757915.3,286047001.1,N
1497757935.1,286046999.8,N
1497757955.8,286047000.4,N
1497757975.7,286047002.2,N
1497757995.5,286047000.4,N
1497758015.4,286046999.9,N
1497758035.2,286047002.4,N
1497758055.0,286046999.8,N
1497758055.9,286046999.8,N
1497758075.8,286047002.4,N
1497758095.6,286046998.1,N
1497758115.4,286047000.4,N
1497758135.3,286047000.5,N
1497758155.1,286047002.4,N
1497758175.9,286047000.5,N
1497758195.7,286047000.5,N
1497758215.5,286047000.6,N
1497758235.4,286047000.5,N
1497758255.2,286047000.0,N
1497758275.0,286047002.3,N
1497758275.9,286047002.3,N
1497758295.8,286047000.0,N
1497758315.6,286047000.1,N
1497758335.5,286047002.7,N
1497758355.3,286047000.0,N
1497758375.1,286047000.7,N
1497758395.9,286047000.6,N
